K0NV Weather Reports


time (UTC)temp
C
wind
direction
speed
KPH
gust
KPH
rain 1hr
cm
rain 24hr
cm
rain mn
cm
humidity
%
barometer
mb
20260507092655 5 286 0.0 0.0 0.00 0.00 0.00 84 1019.1
20260507092151 5 286 0.0 0.0 0.00 0.00 0.00 83 1019.1
20260507091648 5 286 0.0 0.0 0.00 0.00 0.00 81 1019.2
20260507091145 5 286 0.0 0.0 0.00 0.00 0.00 80 1019.2
20260507090640 5 286 0.0 0.0 0.00 0.00 0.00 80 1019.3
20260507090137 5 289 0.0 0.0 0.00 0.00 0.00 80 1019.2
20260507085634 5 289 0.0 0.0 0.00 0.00 0.00 80 1019.1
20260507085131 5 290 0.0 0.0 0.00 0.00 0.00 81 1019.1
20260507084628 5 290 0.0 0.0 0.00 0.00 0.00 81 1018.8
20260507084125 5 291 0.0 0.0 0.00 0.00 0.00 81 1018.9
20260507083621 5 296 0.0 0.0 0.00 0.00 0.00 81 1018.9
20260507083118 5 300 0.0 0.0 0.00 0.00 0.00 81 1018.9
20260507082614 5 303 0.0 0.0 0.00 0.00 0.00 82 1019.0
20260507082111 5 79 0.0 0.0 0.00 0.00 0.00 80 1018.9
20260507081607 5 79 0.0 0.0 0.00 0.00 0.00 79 1019.0
20260507081104 5 78 0.0 0.0 0.00 0.00 0.00 80 1018.8
20260507080600 6 81 0.0 0.0 0.00 0.00 0.00 80 1018.9
20260507080056 6 81 0.0 0.0 0.00 0.00 0.00 79 1019.1
20260507075551 5 86 0.0 0.0 0.00 0.00 0.00 81 1018.7
20260507075048 5 90 0.0 0.0 0.00 0.00 0.00 84 1018.9
20260507074545 5 253 0.0 0.0 0.00 0.00 0.00 84 1018.8
20260507074043 5 264 0.0 0.0 0.00 0.00 0.00 83 1019.2
20260507073539 5 268 0.0 0.0 0.00 0.00 0.00 84 1019.0
20260507073036 5 265 0.0 0.0 0.00 0.00 0.00 84 1019.3
20260507072533 5 266 0.0 0.0 0.00 0.00 0.00 84 1019.3
20260507072030 5 265 0.0 0.0 0.00 0.00 0.00 84 1019.5
20260507071528 5 265 0.0 0.0 0.00 0.00 0.00 85 1019.3
20260507071024 6 268 0.0 0.0 0.00 0.00 0.00 85 1019.3
20260507070521 6 265 0.0 0.0 0.00 0.00 0.00 84 1019.3
20260507070019 6 268 0.0 0.0 0.00 0.00 0.00 83 1019.5
20260507065515 6 272 0.0 0.0 0.00 0.00 0.00 81 1019.6
20260507065012 6 271 0.0 0.0 0.00 0.00 0.00 80 1019.6
20260507064510 6 264 0.0 0.0 0.00 0.00 0.00 79 1019.6
20260507064008 6 263 0.0 0.0 0.00 0.00 0.00 78 1019.5
20260507063505 6 264 0.0 0.0 0.00 0.00 0.00 76 1019.6
20260507063002 6 265 0.0 0.0 0.00 0.00 0.00 77 1019.5
20260507062459 6 268 0.0 0.0 0.00 0.00 0.00 77 1019.5
20260507061956 6 275 0.0 0.0 0.00 0.00 0.00 78 1019.3
20260507061454 6 314 0.0 0.0 0.00 0.00 0.00 79 1019.2
20260507060952 6 294 0.0 0.0 0.00 0.00 0.00 79 1019.7
20260507060449 6 297 0.0 0.0 0.00 0.00 0.00 79 1019.6
20260507055945 6 275 0.0 0.0 0.00 0.00 0.00 79 1019.7
20260507055440 7 275 0.0 0.0 0.00 0.00 0.00 78 1019.7
20260507054938 7 273 0.0 0.0 0.00 0.00 0.00 78 1019.8
20260507054433 7 281 0.0 0.0 0.00 0.00 0.00 78 1019.5
20260507053931 7 280 0.0 0.0 0.00 0.00 0.00 78 1019.8
20260507053428 7 279 0.0 0.0 0.00 0.00 0.00 77 1019.8
20260507052927 7 282 0.0 0.0 0.00 0.00 0.00 77 1019.8
20260507052424 7 278 0.0 0.0 0.00 0.00 0.00 77 1019.7
20260507051921 7 275 0.0 0.0 0.00 0.00 0.00 76 1019.7
20260507051419 7 271 0.0 0.0 0.00 0.00 0.00 76 1019.5
20260507050915 7 278 0.0 0.0 0.00 0.00 0.00 76 1019.5
20260507050412 7 276 0.0 0.0 0.00 0.00 0.00 76 1019.2
20260507045908 7 273 0.0 0.0 0.00 0.00 0.00 76 1019.7
20260507045405 7 271 0.0 0.0 0.00 0.00 0.00 75 1019.3
20260507044857 7 267 0.0 0.0 0.00 0.00 0.00 75 1019.5
20260507044353 7 274 0.0 0.0 0.00 0.00 0.00 74 1019.2
20260507043849 8 276 0.0 0.0 0.00 0.00 0.00 74 1019.5
20260507043345 8 280 0.0 0.0 0.00 0.00 0.00 73 1019.3
20260507042842 8 272 0.0 0.0 0.00 0.00 0.00 73 1019.2
20260507042337 8 280 0.0 0.0 0.00 0.00 0.00 72 1019.3
20260507041829 8 272 0.0 0.0 0.00 0.00 0.00 72 1019.0
20260507041326 8 278 0.0 0.0 0.00 0.00 0.00 71 1019.2
20260507040823 8 272 0.0 0.0 0.00 0.00 0.00 71 1019.3
20260507040319 8 271 0.0 0.0 0.00 0.00 0.00 70 1019.2
20260507035815 8 260 0.0 0.0 0.00 0.00 0.00 70 1019.3
20260507035310 8 269 0.0 0.0 0.00 0.00 0.00 70 1019.3
20260507034809 8 283 0.0 0.0 0.00 0.00 0.00 69 1018.9
20260507034305 8 285 0.0 0.0 0.00 0.00 0.00 70 1019.1
20260507033804 9 304 0.0 0.0 0.00 0.00 0.00 70 1019.1
20260507033301 9 356 0.0 0.0 0.00 0.00 0.00 70 1019.2
20260507032757 9 317 0.0 0.0 0.00 0.00 0.00 71 1018.9
20260507032253 9 282 0.0 0.0 0.00 0.00 0.00 70 1019.0
20260507031750 9 270 0.0 0.0 0.00 0.00 0.00 69 1019.0
20260507031247 10 269 0.0 0.0 0.00 0.00 0.00 68 1018.9
20260507030744 10 267 0.0 0.0 0.00 0.00 0.00 67 1018.9
20260507030241 10 284 0.0 0.0 0.00 0.00 0.00 64 1018.9
20260507025738 10 272 0.0 0.0 0.00 0.00 0.00 64 1018.8
20260507025236 10 282 0.0 0.0 0.00 0.00 0.00 63 1018.6
20260507024734 10 251 0.0 0.0 0.00 0.00 0.00 63 1018.8
20260507024231 10 276 0.0 0.0 0.00 0.00 0.00 63 1018.6
20260507023726 11 284 0.0 0.0 0.00 0.00 0.00 62 1018.6
20260507023223 11 285 0.0 0.0 0.00 0.00 0.00 61 1018.8
20260507022721 11 275 0.0 0.0 0.00 0.00 0.00 62 1018.9
20260507022216 11 245 0.0 0.0 0.00 0.00 0.00 62 1018.8
20260507021713 11 311 0.0 0.0 0.00 0.00 0.00 62 1018.9
20260507021208 11 268 0.0 0.0 0.00 0.00 0.00 62 1018.5
20260507020707 11 347 0.0 0.0 0.00 0.00 0.00 61 1018.4
20260507020203 11 305 0.0 0.0 0.00 0.00 0.00 61 1018.4
20260507015701 11 321 0.0 0.0 0.00 0.00 0.00 61 1018.4
20260507015158 11 326 0.0 0.0 0.00 0.00 0.00 61 1018.3
20260507014654 11 325 0.0 0.0 0.00 0.00 0.00 61 1018.3
20260507014150 12 16 0.0 0.0 0.00 0.00 0.00 59 1018.4
20260507013647 12 302 0.0 0.0 0.00 0.00 0.00 59 1018.3
20260507013144 12 293 0.0 0.0 0.00 0.00 0.00 59 1018.4
20260507012642 12 286 0.0 1.6 0.00 0.00 0.00 58 1018.0
20260507012137 12 303 0.0 0.0 0.00 0.00 0.00 57 1018.0
20260507011636 12 252 0.0 0.0 0.00 0.00 0.00 57 1018.3
20260507011131 12 205 0.0 0.0 0.00 0.00 0.00 56 1018.3
20260507010626 12 254 0.0 0.0 0.00 0.00 0.00 55 1017.9
20260507010122 12 259 0.0 0.0 0.00 0.00 0.00 56 1018.0
20260507005620 13 260 0.0 1.6 0.00 0.00 0.00 55 1018.2
20260507005116 13 346 0.0 0.0 0.00 0.00 0.00 54 1018.0
20260507004613 13 40 0.0 0.0 0.00 0.00 0.00 55 1018.0
20260507004111 13 40 0.0 1.6 0.00 0.00 0.00 54 1018.1
20260507003607 13 292 0.0 0.0 0.00 0.00 0.00 53 1017.6
20260507003102 13 344 0.0 0.0 0.00 0.00 0.00 52 1017.7
20260507002558 13 196 0.0 0.0 0.00 0.00 0.00 52 1017.6
20260507002054 14 343 1.6 3.2 0.00 0.00 0.00 52 1017.8
20260507001551 14 22 0.0 1.6 0.00 0.00 0.00 51 1017.4
20260507001049 14 276 3.2 4.8 0.00 0.00 0.00 51 1017.7
20260507000544 15 263 0.0 0.0 0.00 0.00 0.00 51 1017.5
20260507000040 15 2 4.8 8.0 0.00 0.00 0.00 49 1017.3
20260506235538 15 264 0.0 1.6 0.00 0.00 0.00 50 1017.3
20260506235033 16 255 0.0 0.0 0.00 0.00 0.00 48 1017.3
20260506234531 15 283 1.6 1.6 0.00 0.00 0.00 47 1017.2
20260506234028 15 300 4.8 4.8 0.00 0.00 0.00 46 1016.6
20260506233524 16 243 1.6 4.8 0.00 0.00 0.00 45 1016.6
20260506233016 15 103 1.6 3.2 0.00 0.00 0.00 46 1016.6
20260506232512 15 32 9.7 11.3 0.00 0.00 0.00 46 1016.9
20260506232007 16 216 1.6 3.2 0.00 0.00 0.00 47 1016.6
20260506231505 16 260 3.2 4.8 0.00 0.00 0.00 45 1016.6
20260506231003 15 33 4.8 4.8 0.00 0.00 0.00 46 1016.6
20260506230459 15 282 4.8 4.8 0.00 0.00 0.00 45 1016.7
20260506225956 15 33 1.6 8.0 0.00 0.00 0.00 47 1016.9
20260506225453 15 252 1.6 3.2 0.00 0.00 0.00 46 1017.0
20260506224949 15 65 0.0 1.6 0.00 0.00 0.00 45 1016.6
20260506224446 15 266 1.6 3.2 0.00 0.00 0.00 45 1016.5
20260506223943 15 276 0.0 0.0 0.00 0.00 0.00 46 1016.6
20260506223439 16 236 0.0 0.0 0.00 0.00 0.00 47 1016.7
20260506222936 16 246 0.0 1.6 0.00 0.00 0.00 49 1016.6
20260506222433 15 56 4.8 8.0 0.00 0.00 0.00 50 1016.9
20260506221929 16 28 3.2 4.8 0.00 0.00 0.00 49 1016.7
20260506221426 17 243 0.0 0.0 0.00 0.00 0.00 47 1016.6
20260506220924 16 242 1.6 1.6 0.00 0.00 0.00 48 1016.4
20260506220419 16 235 1.6 1.6 0.00 0.00 0.00 48 1016.5
20260506215916 16 330 1.6 4.8 0.00 0.00 0.00 47 1016.5
20260506215412 16 262 0.0 0.0 0.00 0.00 0.00 47 1016.7
20260506214908 15 15 8.0 9.7 0.00 0.00 0.00 47 1016.6
20260506214406 16 62 9.7 12.9 0.00 0.00 0.00 46 1016.9
20260506213903 16 243 3.2 4.8 0.00 0.00 0.00 49 1016.7
20260506213401 16 31 3.2 4.8 0.00 0.00 0.00 48 1016.6
20260506212858 15 39 9.7 12.9 0.00 0.00 0.00 50 1017.0
20260506212353 16 243 1.6 3.2 0.00 0.00 0.00 49 1017.0
20260506211848 15 12 1.6 3.2 0.00 0.00 0.00 54 1017.2
20260506211345 16 19 4.8 9.7 0.00 0.00 0.00 50 1017.0
20260506210842 16 31 4.8 4.8 0.00 0.00 0.00 49 1017.1
20260506210339 15 22 6.4 8.0 0.00 0.00 0.00 50 1017.3
20260506205836 16 15 9.7 11.3 0.00 0.00 0.00 51 1017.5
20260506205332 15 250 1.6 3.2 0.00 0.00 0.00 49 1017.4
20260506204829 15 139 0.0 0.0 0.00 0.00 0.00 54 1017.1
20260506204326 15 14 8.0 11.3 0.00 0.00 0.00 53 1017.3
20260506203824 15 51 9.7 11.3 0.00 0.00 0.00 53 1017.4
20260506203321 16 9 6.4 9.7 0.00 0.00 0.00 53 1017.3
20260506202818 16 276 0.0 1.6 0.00 0.00 0.00 51 1017.5
20260506202315 15 247 0.0 1.6 0.00 0.00 0.00 52 1017.4
20260506201811 15 276 8.0 11.3 0.00 0.00 0.00 52 1017.5
20260506201309 15 15 4.8 9.7 0.00 0.00 0.00 51 1017.6
20260506200805 16 47 1.6 3.2 0.00 0.00 0.00 51 1017.4
20260506200301 16 68 6.4 12.9 0.00 0.00 0.00 50 1017.5
20260506195758 16 163 1.6 1.6 0.00 0.00 0.00 51 1017.6
20260506195255 16 165 4.8 8.0 0.00 0.00 0.00 52 1017.6
20260506194752 15 299 1.6 4.8 0.00 0.00 0.00 52 1017.8
20260506194248 15 245 0.0 0.0 0.00 0.00 0.00 54 1017.7
20260506193746 15 317 0.0 0.0 0.00 0.00 0.00 55 1017.9
20260506193243 15 32 0.0 1.6 0.00 0.00 0.00 54 1017.8
20260506192739 15 64 9.7 11.3 0.00 0.00 0.00 56 1018.2
20260506192236 14 35 3.2 4.8 0.00 0.00 0.00 57 1018.0
20260506191733 15 278 3.2 3.2 0.00 0.00 0.00 55 1018.1
20260506191229 14 210 1.6 3.2 0.00 0.00 0.00 57 1018.2
20260506190726 15 242 3.2 3.2 0.00 0.00 0.00 55 1018.1
20260506190223 15 283 4.8 8.0 0.00 0.00 0.00 55 1018.1
20260506185720 14 18 1.6 3.2 0.00 0.00 0.00 55 1018.4
20260506185216 15 107 0.0 1.6 0.00 0.00 0.00 59 1018.6
20260506184714 15 266 1.6 3.2 0.00 0.00 0.00 56 1018.5
20260506184211 15 158 1.6 3.2 0.00 0.00 0.00 58 1019.0
20260506183708 15 252 1.6 1.6 0.00 0.00 0.00 58 1019.0
20260506183203 15 278 1.6 3.2 0.00 0.00 0.00 58 1019.0
20260506182701 15 273 1.6 3.2 0.00 0.00 0.00 60 1019.1
20260506182158 14 275 4.8 4.8 0.00 0.00 0.00 57 1019.2
20260506181655 14 15 1.6 3.2 0.00 0.00 0.00 59 1019.2
20260506181153 14 51 1.6 3.2 0.00 0.00 0.00 59 1019.6
20260506180650 14 144 0.0 1.6 0.00 0.00 0.00 60 1019.3
20260506180146 13 252 0.0 1.6 0.00 0.00 0.00 59 1019.1
20260506175642 13 275 0.0 0.0 0.00 0.00 0.00 64 1019.1
20260506175139 14 226 0.0 0.0 0.00 0.00 0.00 61 1019.2
20260506174632 15 265 1.6 1.6 0.00 0.00 0.00 60 1018.8
20260506174128 14 223 0.0 0.0 0.00 0.00 0.00 61 1019.2
20260506173626 14 299 4.8 4.8 0.00 0.00 0.00 61 1019.2
20260506173122 14 194 0.0 0.0 0.00 0.00 0.00 65 1019.1
20260506172620 13 351 4.8 8.0 0.00 0.00 0.00 65 1019.3
20260506172116 13 226 0.0 0.0 0.00 0.00 0.00 62 1019.2
20260506171613 13 198 0.0 0.0 0.00 0.00 0.00 66 1019.3
20260506171110 13 182 1.6 4.8 0.00 0.00 0.00 63 1019.3
20260506170607 13 41 0.0 1.6 0.00 0.00 0.00 66 1019.0
20260506170100 12 345 0.0 0.0 0.00 0.00 0.00 67 1019.1
20260506165558 12 35 4.8 8.0 0.00 0.00 0.00 65 1018.9
20260506165054 12 34 8.0 11.3 0.00 0.00 0.00 66 1018.6
20260506164551 12 358 0.0 0.0 0.00 0.00 0.00 65 1018.8
20260506164048 12 43 0.0 1.6 0.00 0.00 0.00 68 1018.8
20260506163544 13 250 1.6 3.2 0.00 0.00 0.00 61 1018.5
20260506163039 13 23 1.6 3.2 0.00 0.00 0.00 63 1018.4
20260506162536 12 358 1.6 8.0 0.00 0.00 0.00 67 1018.6
20260506162028 12 65 4.8 8.0 0.00 0.00 0.00 68 1018.6
20260506161525 12 63 3.2 4.8 0.00 0.00 0.00 68 1018.5
20260506161022 12 28 0.0 3.2 0.00 0.00 0.00 70 1018.6
20260506160520 11 130 1.6 1.6 0.00 0.00 0.00 70 1018.7
20260506160016 11 46 0.0 0.0 0.00 0.00 0.00 71 1018.6
20260506155515 11 39 1.6 3.2 0.00 0.00 0.00 71 1018.7
20260506153646 11 40 6.4 9.7 0.00 0.00 0.00 71 1018.3
20260506153143 11 81 0.0 0.0 0.00 0.00 0.00 72 1018.3
20260506152640 10 25 0.0 0.0 0.00 0.00 0.00 74 1018.3
20260506152138 10 42 6.4 8.0 0.00 0.00 0.00 73 1018.1
20260506151636 10 42 0.0 1.6 0.00 0.00 0.00 74 1018.1
20260506151133 10 38 0.0 3.2 0.00 0.00 0.00 77 1018.3
20260506150630 10 29 4.8 9.7 0.00 0.00 0.00 76 1018.6
20260506150127 9 37 0.0 0.0 0.00 0.00 0.00 78 1018.6
20260506145624 10 98 0.0 1.6 0.00 0.00 0.00 79 1018.5
20260506145120 10 26 1.6 3.2 0.00 0.00 0.00 78 1018.6
20260506144618 10 26 4.8 9.7 0.00 0.00 0.00 78 1018.6
20260506144114 9 260 0.0 0.0 0.00 0.00 0.00 81 1018.3
20260506143612 9 12 1.6 3.2 0.00 0.00 0.00 81 1018.3
20260506143110 8 223 0.0 0.0 0.00 0.00 0.00 83 1018.4
20260506142608 8 67 0.0 0.0 0.00 0.00 0.00 83 1018.3
20260506142106 8 32 0.0 0.0 0.00 0.00 0.00 85 1018.0
20260506141603 8 322 0.0 1.6 0.00 0.00 0.00 86 1018.1
20260506141102 8 41 0.0 0.0 0.00 0.00 0.00 87 1018.3
20260506140558 8 26 0.0 0.0 0.00 0.00 0.00 88 1018.3
20260506140056 8 28 0.0 0.0 0.00 0.00 0.00 89 1018.4
20260506135552 8 50 0.0 3.2 0.00 0.00 0.00 89 1018.1
20260506135048 7 297 0.0 0.0 0.00 0.00 0.00 90 1018.2
20260506134545 7 35 1.6 4.8 0.00 0.00 0.00 90 1017.9
20260506134041 7 18 0.0 0.0 0.00 0.00 0.00 90 1018.3
20260506133538 7 322 3.2 8.0 0.00 0.00 0.00 92 1017.9
20260506133035 7 232 0.0 0.0 0.00 0.00 0.00 94 1017.8
20260506132533 7 9 0.0 0.0 0.00 0.00 0.00 95 1017.6
20260506132030 7 286 0.0 0.0 0.00 0.00 0.00 96 1018.0
20260506131527 7 283 0.0 0.0 0.00 0.00 0.00 97 1017.9
20260506131023 7 284 0.0 0.0 0.00 0.00 0.00 97 1017.7
20260506130520 7 324 0.0 0.0 0.00 0.00 0.00 97 1018.0
20260506130018 7 115 0.0 0.0 0.00 0.00 0.00 98 1017.9
20260506125516 7 260 0.0 0.0 0.00 0.00 0.00 98 1018.2
20260506125013 6 292 0.0 0.0 0.00 0.00 0.00 98 1017.9
20260506124511 7 282 0.0 0.0 0.00 0.00 0.00 98 1018.2
20260506124009 7 291 0.0 0.0 0.00 0.00 0.00 98 1018.0
20260506123506 6 262 0.0 0.0 0.00 0.00 0.00 98 1018.3
20260506123004 6 229 0.0 0.0 0.00 0.00 0.00 98 1018.1
20260506122501 6 295 1.6 4.8 0.00 0.00 0.00 98 1018.4
20260506121959 6 297 0.0 0.0 0.00 0.00 0.00 98 1018.2
20260506121456 6 270 0.0 0.0 0.00 0.00 0.00 99 1018.1
20260506120952 6 330 0.0 0.0 0.00 0.00 0.00 99 1017.7
20260506120450 6 359 0.0 0.0 0.00 0.00 0.00 99 1017.9
20260506115947 6 9 0.0 0.0 0.00 0.00 0.00 99 1017.8
20260506115445 6 282 0.0 0.0 0.00 0.00 0.00 99 1017.8
20260506114943 6 308 0.0 1.6 0.00 0.00 0.00 99 1017.7
20260506114440 6 271 0.0 0.0 0.00 0.00 0.00 99 1017.7
20260506113939 6 241 0.0 0.0 0.00 0.00 0.00 99 1017.7
20260506113436 6 253 0.0 0.0 0.00 0.00 0.00 99 1017.4
20260506112932 6 229 0.0 0.0 0.00 0.00 0.00 99 1017.2
20260506112430 6 296 0.0 0.0 0.00 0.00 0.00 99 1017.1
20260506111927 6 312 0.0 0.0 0.00 0.00 0.00 99 1016.9
20260506111425 6 258 0.0 0.0 0.00 0.00 0.00 99 1016.7
20260506110922 6 359 0.0 0.0 0.00 0.00 0.00 99 1016.5
20260506110420 6 266 0.0 0.0 0.00 0.00 0.00 99 1016.6
20260506105916 6 286 0.0 0.0 0.00 0.00 0.00 99 1016.4
20260506105413 6 277 0.0 0.0 0.00 0.00 0.00 99 1016.4
20260506104910 6 246 0.0 0.0 0.00 0.00 0.00 99 1016.1
20260506104408 6 296 0.0 0.0 0.00 0.00 0.00 99 1016.1
20260506103906 6 282 0.0 0.0 0.00 0.00 0.00 99 1016.0
20260506103403 6 245 0.0 0.0 0.00 0.00 0.00 99 1016.1
20260506102900 6 358 1.6 1.6 0.00 0.00 0.00 99 1015.9
20260506102358 6 233 0.0 0.0 0.00 0.00 0.00 98 1016.0
20260506101855 6 299 0.0 0.0 0.00 0.00 0.00 98 1015.8
20260506101351 6 35 0.0 0.0 0.00 0.00 0.00 98 1015.9
20260506100849 6 25 0.0 0.0 0.00 0.00 0.00 98 1015.8
20260506100347 6 266 0.0 0.0 0.00 0.00 0.00 98 1016.0
20260506095845 6 280 0.0 0.0 0.00 0.00 0.00 97 1015.6
20260506095342 6 88 0.0 0.0 0.00 0.00 0.00 97 1015.5
20260506094839 6 232 0.0 0.0 0.00 0.00 0.00 97 1015.3
20260506094338 6 264 0.0 0.0 0.00 0.00 0.00 97 1015.4
20260506093835 6 266 0.0 0.0 0.00 0.00 0.00 96 1015.4
20260506093332 6 272 0.0 0.0 0.00 0.00 0.00 96 1015.4
20260506092830 6 291 0.0 0.0 0.00 0.00 0.00 96 1015.0